Regional Weather Roundup
Issued by NWS

Home | Current Version | Previous Version | Text Only | Print | Product List | Glossary Off
Versions: 1 2 3 4 5 6 7 8 9 10 11 12 13 14 15 16 17 18 19 20 21 22 23 24 25 26 27 28 29 30 31 32 33 34 35 36 37 38 39 40 41 42 43 44 45 46 47 48 49 50

000
ASUS45 KBOU 300307
RWRCO

WEATHER ROUNDUP FOR COLORADO
NATIONAL WEATHER SERVICE DENVER/BOULDER CO
900 PM MDT TUE JUL 29 2014

NOTE: "FAIR" INDICATES FEW OR NO CLOUDS BELOW 12000 FEET WITH NO
SIGNIFICANT WEATHER AND/OR OBSTRUCTIONS TO VISIBILITY.

COZ001>005-013-030-031-300400-
...NORTHWEST COLORADO...

CITY           SKY/WX    TMP DP  RH WIND       PRES   REMARKS
CRAIG          LGT RAIN  54  32  43 SW12      30.29R
HAYDEN         CLOUDY    55  52  88 SW9       30.30R
MEEKER         LGT RAIN  56  54  93 NE7       30.31R
MOUNT WERNER   NOT AVBL
STEAMBOAT SPGS CLOUDY    58  55  90 W9G16     30.31R
WALDEN         CLOUDY    54  52  94 NW7       30.37S
$$

COZ006>008-011-300400-
...WEST CENTRAL VALLEYS...

CITY           SKY/WX    TMP DP  RH WIND       PRES   REMARKS
GRAND JUNCTION CLOUDY    64  57  78 NE5       30.22R
MONTROSE       LGT RAIN  68  58  70 N3        30.27R
EAGLE          MOCLDY    64  55  72 E7        30.29R
RIFLE          LGT RAIN  64  54  69 W23G30    30.27R
DELTA          RAIN      69  63  82 S3        30.23R
NUCLA          CLOUDY    64  57  77 SE5       30.29S
$$

COZ017>023-064>068-300400-
...SOUTHWEST COLORADO...

CITY           SKY/WX    TMP DP  RH WIND       PRES   REMARKS
DURANGO        PTCLDY    68  47  46 N3        30.24S
CORTEZ         CLEAR     68  52  56 CALM      30.22R
PAGOSA SPRINGS PTCLDY    63  47  57 N3        30.33R
TELLURIDE      CLOUDY    54  52  94 E6        30.46S
WOLF CREEK PAS NOT AVBL
$$

COZ009-010-012-014-032>034-037-058>063-300400-
...CENTRAL COLORADO...

CITY           SKY/WX    TMP DP  RH WIND       PRES   REMARKS
ASPEN          LGT RAIN  58  54  86 SE7       30.36R
BUENA VISTA    PTCLDY    63  48  59 W6        30.33R
COPPER MTN     FOG       46  43  87 W15       30.62S THUNDER VSB<1/4
BERTHOUD PASS  TSTM      39  28  65 N5        30.66S VSB<1/4
COTTONWOOD PAS PTCLDY    61  45  55 NW5       30.47R
GUNNISON       CLOUDY    63  46  55 SW20      30.38R
KREMMLING      MOCLDY    59  54  82 CALM      30.34R
LEADVILLE      MOCLDY    52  47  83 N6        30.47R
MONARCH PASS   MOCLDY    45  41  87 W21       30.72S
SALIDA         PTCLDY    67  52  60 SW10      30.37R
SUNLIGHT       TSTM      50  46  87 SW3       30.57R
WILKERSON PASS CLOUDY    46  45  93 N9        30.59S
$$

COZ069>075-300400-
...SAN LUIS VALLEY/SANGRE DE CRISTO MOUNTAINS...

CITY           SKY/WX    TMP DP  RH WIND       PRES   REMARKS
ALAMOSA        CLOUDY    58  54  86 MISG      30.32R
LA VETA PASS   CLOUDY    50  46  87 SW7G20    30.47F
SAGUACHE       MOCLDY    59  54  82 N3        30.35R
$$

COZ035-036-038>040-300400-
...NORTHERN COLORADO FRONT RANGE...

CITY           SKY/WX    TMP DP  RH WIND       PRES   REMARKS
DENVER INTL AP LGT RAIN  61  59  93 CALM      30.25R
DMNS CITY PARK   N/A     62  60  94 SE3       30.26R
AURORA         LGT RAIN  59  59  99 N5        30.28R
FRONT RANGE AP HVY RAIN  61  59  94 W6        30.26R
ERIE MUNI ARPT CLOUDY    64  61  91 N5        30.24R
BOULDER MUN AP DRIZZLE   63  61  94 CALM      30.25R
CENTENNIAL     LGT RAIN  60  56  86 NE6       30.27R
BROOMFIELD     DRIZZLE   63  59  88 N5        30.26S
FORT COLLINS   CLOUDY    63  61  94 N9        30.26R
LONGMONT       CLOUDY    66  61  82 N9        30.26R
$$

COZ041-046-047-076>085-087-088-300400-
...PIKES PEAK/PALMER DIVIDE AND SOUTHERN FOOTHILLS...

CITY           SKY/WX    TMP DP  RH WIND       PRES   REMARKS
COLO. SPRINGS  TSTM      59  57  93 E10       30.28R FOG
A. F. ACADEMY  LGT RAIN  59  59 100 NE2       30.30R
ELLICOTT       LGT RAIN  58  57  97 E17       30.24R
FALCON         RAIN      56  55  98 E9        30.32R
FORT CARSON    RAIN      59  59 100 NE6       30.25R
LIMON          LGT RAIN  60  59  96 SE7       30.24R
MONUMENT HILL  LGT RAIN  55  54  94 E6        30.31R
TRINIDAD       LGT RAIN  70  58  65 W6        30.17R
$$

COZ042>045-048>051-090-091-300400-
...NORTHEAST COLORADO...

CITY           SKY/WX    TMP DP  RH WIND       PRES   REMARKS
GREELEY ARPT   CLOUDY    63  57  82 E6        30.24
AKRON          RAIN      60  59  96 E13       30.25R FOG
BURLINGTON     CLOUDY    66  64  93 S8        30.13S
WRAY             N/A     66  66 100 SW9       30.20R THUNDER
STERLING       HVY RAIN  64  64 100 N7        30.22R
HOLYOKE        CLOUDY    73  61  64 E15       30.16R
FORT MORGAN    CLOUDY    61  59  93 N8        30.23R
$$

COZ086-089-092>099-300400-
...SOUTHEAST COLORADO...

CITY           SKY/WX    TMP DP  RH WIND       PRES   REMARKS
PUEBLO         CLOUDY    66  59  78 NE17G23   30.16R
LA JUNTA       CLOUDY    67  65  93 NE17      30.10R
LAMAR          LGT RAIN  69  67  93 NE8       30.10R FOG
SPRINGFIELD      N/A     67  65  93 SE10      30.12F
$$



USA.gov is the U.S. government's official web portal to all federal, state and local government web resources and services.